Regional Weather Roundup
Issued by NWS

Home | Current Version | Previous Version | Graphics & Text | Print | Product List | Glossary Off
Versions: 1 2 3 4 5 6 7 8 9 10 11 12 13 14 15 16 17 18 19 20 21 22 23 24 25 26 27 28 29 30 31 32 33 34 35 36 37 38 39 40 41 42 43 44 45 46 47 48 49 50

000
ASUS43 KTOP 202008
RWRKS

WEATHER ROUNDUP FOR KANSAS
NATIONAL WEATHER SERVICE GOODLAND KS
300 PM CDT SAT SEP 20 2014

NOTE:  "FAIR" INDICATES FEW OR NO CLOUDS BELOW 12,000 FEET WITH NO
SIGNIFICANT WEATHER AND/OR OBSTRUCTIONS TO VISIBILITY.

KSZ001>006-013>018-027>032-041>047-202100-
NORTHWEST KANSAS

CITY           SKY/WX    TMP DP  RH WIND       PRES   REMARKS
GOODLAND       SUNNY     83  52  34 NE16G25   30.12F
HAYS           MOSUNNY   88  66  48 NW6       29.98S
HILL CITY      SUNNY     88  56  33 NE16      30.02S
RUSSELL        SUNNY     87  67  51 VRB3      29.96S
$$

KSZ061>065-074>080-084>089-202100-
SOUTHWEST KANSAS

CITY           SKY/WX    TMP DP  RH WIND       PRES   REMARKS
DODGE CITY     MOSUNNY   91  60  35 SW13      29.99F
ELKHART          N/A     88  61  40 N3          N/A
GARDEN CITY    SUNNY     88  60  38 MISG      30.01F
GREAT BEND     PTSUNNY   90  64  43 W8        29.95F
LIBERAL        MOSUNNY   91  63  38 S13       30.02F
PRATT          MOSUNNY   88  57  35 S10G20    29.99F
$$

KSZ066>073-081>083-090>101-202100-
SOUTHEAST KANSAS

CITY           SKY/WX    TMP DP  RH WIND       PRES   REMARKS
CHANUTE        MOSUNNY   83  72  69 SW9       30.00S
HUTCHINSON     MOSUNNY   91  63  39 SW16G23   29.96F
MEDICINE LODGE   N/A     89  62  40 S13G20    29.96F
NEWTON         MOSUNNY   88  63  42 SW9G17    30.00F
PARSONS        MOSUNNY   84  73  69 S8        30.00F
WICHITA INTL   MOSUNNY   91  61  36 SW16      29.96S
WICHITA JABRA  MOSUNNY   88  62  41 S10       29.97S
WICHITA MCCONL MOSUNNY   89  61  38 S16       29.97F
WINFIELD       MOSUNNY   89  67  47 S12G25    29.97F
$$

KSZ007>012-019>026-033>040-048>060-102>105-202100-
NORTHEAST KANSAS

CITY           SKY/WX    TMP DP  RH WIND       PRES   REMARKS
CONCORDIA      PTSUNNY   84  68  58 NW3       29.96F
EMPORIA        MOSUNNY   86  67  52 SW10      29.96F
LAWRENCE       CLOUDY    82  68  62 W9        29.92F
MANHATTAN      MOSUNNY   91  67  44 SW10G22   29.91F
MARYSVILLE     PTSUNNY   82  70  65 W6        29.95S
OLATHE IND     PTSUNNY   82  69  64 SW17G26   29.91F
OLATHE EXE     PTSUNNY   81  69  67 SW9G26    29.90F
SALINA         PTSUNNY   89  65  44 SW13      29.95F
TOPEKA BILLARD PTSUNNY   88  67  49 S14       29.90F
TOPEKA FORBES  PTSUNNY   89  67  47 S15       29.92F
$$



USA.gov is the U.S. government's official web portal to all federal, state and local government web resources and services.